• In Hungary
  • List of Countries
  • For 7 days
  • Water Temperature
  • Satellite Maps
  • Weather Map
  • News
  • Weather Widgets
  • user-avatar
    Login

    Hourly Weather Pyzowka

    Today, 19 February, Monday

    Time Temperature Precipitation Wind Pressure Humidity
    00:00 -8°C° 0 mm 1 mps 700 mmHg 91%
    01:00 -8°C° 0 mm 1 mps 700 mmHg 92%
    02:00 -9°C° 0 mm 1 mps 700 mmHg 92%
    03:00 -9°C° 0 mm 1 mps 700 mmHg 91%
    04:00 -9°C° 0 mm 1 mps 699 mmHg 91%
    05:00 -9°C° 0 mm 1 mps 699 mmHg 90%
    06:00 -9°C° 0 mm 1 mps 699 mmHg 89%
    07:00 -10°C° 0 mm 1 mps 699 mmHg 88%
    08:00 -7°C° 0 mm 1 mps 699 mmHg 83%
    09:00 -4°C° 0 mm 1 mps 699 mmHg 77%
    10:00 -2°C° 0 mm 1 mps 700 mmHg 71%
    11:00 -1°C° 0 mm 1 mps 699 mmHg 70%
    12:00 0°C° 0 mm 1 mps 699 mmHg 69%
    13:00 0°C° 0 mm 1 mps 699 mmHg 68%
    14:00 0°C° 0 mm 1 mps 699 mmHg 72%
    15:00 0°C° 0 mm 1 mps 698 mmHg 75%
    16:00 -1°C° 0 mm 1 mps 698 mmHg 78%
    17:00 -2°C° 0 mm 1 mps 697 mmHg 82%
    18:00 -4°C° 0 mm 1 mps 697 mmHg 85%
    19:00 -6°C° 0 mm 1 mps 697 mmHg 89%
    20:00 -7°C° 0 mm 1 mps 697 mmHg 88%
    21:00 -7°C° 0 mm 1 mps 696 mmHg 88%
    22:00 -7°C° 0 mm 1 mps 696 mmHg 88%
    23:00 -7°C° 0 mm 1 mps 696 mmHg 86%

    Tomorrow, 20 February, Tuesday

    Time Temperature Precipitation Wind Pressure Humidity
    00:00 -7°C° 0 mm 1 mps 696 mmHg 84%
    01:00 -7°C° 0 mm 1 mps 696 mmHg 82%
    02:00 -7°C° 0 mm 1 mps 696 mmHg 81%
    03:00 -7°C° 0 mm 1 mps 695 mmHg 79%
    04:00 -7°C° 0 mm 1 mps 695 mmHg 78%
    05:00 -7°C° 0 mm 1 mps 695 mmHg 78%
    06:00 -7°C° 0 mm 1 mps 695 mmHg 77%
    07:00 -7°C° 0 mm 1 mps 695 mmHg 77%
    08:00 -4°C° 0 mm 1 mps 695 mmHg 74%
    09:00 -3°C° 0 mm 1 mps 695 mmHg 72%
    10:00 -1°C° 0 mm 1 mps 695 mmHg 69%
    11:00 -2°C° 0 mm 2 mps 695 mmHg 69%
    12:00 -2°C° 0 mm 2 mps 695 mmHg 68%
    13:00 -1°C° 0 mm 2 mps 695 mmHg 68%
    14:00 -1°C° 0 mm 2 mps 695 mmHg 72%
    15:00 -2°C° 0 mm 2 mps 695 mmHg 76%
    16:00 -3°C° 0 mm 2 mps 694 mmHg 79%
    17:00 -4°C° 0 mm 2 mps 694 mmHg 83%
    18:00 -5°C° 0 mm 2 mps 694 mmHg 86%
    19:00 -5°C° 0 mm 2 mps 694 mmHg 90%
    20:00 -6°C° 0 mm 2 mps 694 mmHg 90%
    21:00 -6°C° 0 mm 2 mps 694 mmHg 89%
    22:00 -6°C° 0 mm 2 mps 695 mmHg 89%
    23:00 -6°C° 0 mm 2 mps 695 mmHg 90%

    Day after tomorrow, 21 February, Wednesday

    Time Temperature Precipitation Wind Pressure Humidity
    00:00 -6°C° 0 mm 2 mps 695 mmHg 90%
    01:00 -6°C° 0 mm 2 mps 695 mmHg 90%
    02:00 -6°C° 0 mm 2 mps 695 mmHg 90%
    03:00 -6°C° 0 mm 2 mps 695 mmHg 91%
    04:00 -6°C° 0 mm 2 mps 695 mmHg 91%
    05:00 -7°C° 0 mm 2 mps 695 mmHg 91%
    06:00 -7°C° 0 mm 2 mps 695 mmHg 91%
    07:00 -7°C° 0 mm 2 mps 695 mmHg 91%
    08:00 -6°C° 0 mm 2 mps 695 mmHg 89%
    09:00 -5°C° 0 mm 2 mps 695 mmHg 86%
    10:00 -4°C° 0 mm 2 mps 696 mmHg 83%
    11:00 -4°C° 0 mm 2 mps 695 mmHg 81%
    12:00 -3°C° 0 mm 2 mps 695 mmHg 80%
    13:00 -3°C° 0 mm 2 mps 695 mmHg 79%
    14:00 -3°C° 0 mm 2 mps 695 mmHg 80%
    15:00 -4°C° 0 mm 2 mps 695 mmHg 81%
    16:00 -4°C° 0 mm 2 mps 695 mmHg 83%
    17:00 -5°C° 0 mm 2 mps 695 mmHg 84%
    18:00 -6°C° 0 mm 2 mps 695 mmHg 86%
    19:00 -6°C° 0 mm 2 mps 695 mmHg 88%
    20:00 -6°C° 0 mm 2 mps 695 mmHg 88%
    21:00 -7°C° 0 mm 2 mps 695 mmHg 88%
    22:00 -7°C° 0 mm 2 mps 695 mmHg 89%
    23:00 -7°C° 0 mm 2 mps 695 mmHg 89%

    22 February, Thursday

    Time Temperature Precipitation Wind Pressure Humidity
    00:00 -7°C° 0 mm 2 mps 695 mmHg 89%
    01:00 -7°C° 0 mm 2 mps 695 mmHg 89%
    02:00 -7°C° 0 mm 2 mps 695 mmHg 90%
    03:00 -7°C° 0 mm 2 mps 695 mmHg 90%
    04:00 -7°C° 0 mm 2 mps 695 mmHg 91%
    05:00 -7°C° 0 mm 2 mps 695 mmHg 90%
    06:00 -8°C° 0 mm 3 mps 695 mmHg 90%
    07:00 -8°C° 0 mm 3 mps 695 mmHg 90%
    08:00 -7°C° 0 mm 3 mps 695 mmHg 87%
    09:00 -7°C° 0 mm 3 mps 695 mmHg 84%
    10:00 -6°C° 0 mm 3 mps 695 mmHg 82%
    11:00 -5°C° 0 mm 3 mps 695 mmHg 80%
    12:00 -5°C° 0 mm 3 mps 695 mmHg 79%
    13:00 -5°C° 0 mm 3 mps 695 mmHg 78%
    14:00 -5°C° 0 mm 3 mps 695 mmHg 79%
    15:00 -5°C° 0 mm 3 mps 695 mmHg 80%
    16:00 -5°C° 0 mm 3 mps 695 mmHg 81%
    17:00 -6°C° 0 mm 3 mps 695 mmHg 83%
    18:00 -7°C° 0 mm 3 mps 695 mmHg 85%
    19:00 -7°C° 0 mm 3 mps 695 mmHg 87%
    20:00 -7°C° 0 mm 3 mps 695 mmHg 88%
    21:00 -7°C° 0 mm 3 mps 695 mmHg 88%
    22:00 -7°C° 0 mm 3 mps 695 mmHg 89%
    23:00 -7°C° 0 mm 3 mps 695 mmHg 89%

    23 February, Friday

    Time Temperature Precipitation Wind Pressure Humidity
    00:00 -7°C° 0 mm 3 mps 695 mmHg 89%
    01:00 -8°C° 0 mm 3 mps 695 mmHg 89%
    02:00 -8°C° 0 mm 3 mps 695 mmHg 89%
    03:00 -8°C° 0 mm 3 mps 695 mmHg 88%
    04:00 -8°C° 0 mm 3 mps 694 mmHg 88%
    05:00 -8°C° 0.1 mm 3 mps 695 mmHg 88%
    06:00 -8°C° 0.1 mm 3 mps 695 mmHg 88%
    07:00 -8°C° 0.1 mm 3 mps 695 mmHg 88%
    08:00 -8°C° 0 mm 3 mps 695 mmHg 85%
    09:00 -7°C° 0 mm 3 mps 695 mmHg 83%
    10:00 -7°C° 0 mm 3 mps 695 mmHg 80%
    11:00 -7°C° 0 mm 4 mps 695 mmHg 79%
    12:00 -7°C° 0 mm 4 mps 695 mmHg 77%
    13:00 -7°C° 0 mm 4 mps 695 mmHg 76%
    14:00 -8°C° 0 mm 4 mps 695 mmHg 76%
    15:00 -8°C° 0 mm 4 mps 695 mmHg 76%
    16:00 -8°C° 0 mm 4 mps 695 mmHg 76%
    17:00 -9°C° 0 mm 4 mps 696 mmHg 76%
    18:00 -10°C° 0 mm 4 mps 696 mmHg 76%
    19:00 -11°C° 0 mm 4 mps 696 mmHg 76%
    20:00 -12°C° 0 mm 4 mps 696 mmHg 76%
    21:00 -14°C° 0 mm 4 mps 696 mmHg 76%
    22:00 -14°C° 0 mm 4 mps 696 mmHg 75%
    23:00 -15°C° 0 mm 4 mps 696 mmHg 75%

    24 February, Saturday

    Time Temperature Precipitation Wind Pressure Humidity
    00:00 -15°C° 0 mm 4 mps 696 mmHg 75%
    01:00 -16°C° 0 mm 4 mps 696 mmHg 75%
    02:00 -16°C° 0 mm 4 mps 696 mmHg 76%
    03:00 -16°C° 0 mm 4 mps 696 mmHg 76%
    04:00 -17°C° 0 mm 4 mps 696 mmHg 77%
    05:00 -17°C° 0 mm 4 mps 696 mmHg 77%
    06:00 -17°C° 0 mm 4 mps 696 mmHg 77%
    07:00 -17°C° 0 mm 4 mps 696 mmHg 78%
    08:00 -16°C° 0.1 mm 4 mps 697 mmHg 75%
    09:00 -15°C° 0.1 mm 5 mps 697 mmHg 72%
    10:00 -15°C° 0.1 mm 5 mps 697 mmHg 69%
    11:00 -14°C° 0.1 mm 5 mps 697 mmHg 66%
    12:00 -14°C° 0.1 mm 5 mps 697 mmHg 63%
    13:00 -13°C° 0.1 mm 5 mps 697 mmHg 60%
    14:00 -14°C° 0 mm 5 mps 697 mmHg 58%
    15:00 -14°C° 0 mm 5 mps 697 mmHg 57%
    16:00 -14°C° 0 mm 5 mps 697 mmHg 55%
    17:00 -14°C° 0 mm 4 mps 697 mmHg 60%
    18:00 -15°C° 0 mm 4 mps 697 mmHg 64%
    19:00 -14°C° 0 mm 3 mps 696 mmHg 68%
    20:00 -14°C° 0 mm 3 mps 696 mmHg 69%
    21:00 -14°C° 0 mm 2 mps 696 mmHg 70%
    22:00 -14°C° 0 mm 2 mps 696 mmHg 71%
    23:00 -14°C° 0 mm 2 mps 696 mmHg 72%
    Show more